Theta_e
306 306 306 306 307 307 308 310 312 313 314 315 317 317 316 316 316 316 317 318 318 318 320 342 347 348 348 349 351 352 348 342 343 347 351 352 353 351 350 349 348 346 345 345 344
305 305 305 306 306 307 307 307 308 310 312 313 314 316 317 317 317 317 317 318 318 318 328 341 343 345 342 344 346 348 343 340 339 341 347 351 350 351 350 349 348 347 343 344 343
303 304 304 304 305 305 306 307 308 308 309 311 314 313 313 316 317 319 319 319 318 317 336 335 332 338 338 336 339 342 341 337 337 339 346 350 351 351 348 350 348 348 344 344 342
303 303 303 304 304 305 305 306 307 309 309 308 311 313 312 313 321 322 320 323 321 328 336 334 331 337 334 334 332 338 337 336 337 344 347 350 348 349 348 347 347 348 345 343 341
303 304 304 304 304 305 305 306 307 307 309 309 309 312 312 317 318 317 321 320 319 330 329 329 331 332 329 328 329 335 335 332 333 345 349 348 348 349 348 351 347 348 346 342 340
303 303 303 303 304 305 305 306 307 307 308 310 311 312 311 315 318 319 317 321 329 329 327 329 330 328 326 327 330 333 332 341 337 347 351 348 350 349 350 351 347 347 345 343 342
303 303 303 304 304 304 305 306 307 307 309 311 315 316 314 316 316 317 317 318 323 326 325 326 326 327 325 327 327 331 336 345 346 350 352 348 352 350 350 351 348 347 346 345 345
303 303 303 303 304 304 305 306 306 307 310 314 317 319 317 315 315 316 318 321 322 323 324 326 326 325 326 327 329 332 335 346 348 350 351 349 349 350 351 351 349 348 348 347 347
303 303 303 302 303 304 304 305 307 309 311 314 317 319 321 317 316 316 318 322 324 324 325 324 325 325 325 328 333 334 339 344 348 349 352 351 351 352 351 351 350 348 349 349 348
304 304 304 303 303 303 304 305 308 308 311 315 317 318 319 319 319 318 316 321 324 323 322 325 325 327 327 329 336 337 336 342 344 349 351 351 351 352 351 351 350 347 350 350 349
304 304 304 303 302 302 304 308 311 314 308 309 314 319 319 319 318 320 317 317 318 319 323 327 328 328 327 329 334 336 336 340 341 346 350 349 349 352 352 351 350 348 348 350 349
305 305 305 304 302 302 306 306 304 304 307 308 309 310 312 315 318 320 318 318 320 322 323 328 330 328 328 328 330 335 336 337 341 343 347 346 348 347 352 351 349 349 344 347 349
306 306 306 306 303 304 305 303 304 305 310 311 312 313 314 314 317 320 319 319 321 322 323 328 327 328 327 326 328 332 336 337 340 342 344 344 346 345 349 350 349 349 348 344 345
306 306 306 306 307 303 306 306 304 305 314 316 317 316 315 315 317 319 320 320 322 322 323 326 326 327 328 327 328 334 334 335 336 342 344 343 345 344 347 352 351 350 349 348 343
306 305 305 305 302 307 305 304 302 308 312 317 318 315 317 317 320 320 320 321 322 322 323 325 325 327 328 327 327 331 333 333 334 340 342 344 345 345 347 350 352 350 350 349 347
305 304 303 305 306 305 304 304 308 314 311 314 317 317 317 318 319 321 321 321 322 322 322 324 324 327 328 327 327 330 333 333 335 338 341 342 345 344 346 344 345 349 349 350 349
304 302 302 303 305 302 304 307 311 311 313 313 316 316 316 318 320 322 323 323 324 324 323 323 325 326 327 327 327 328 333 336 336 336 339 338 342 343 341 340 340 343 348 349 349
304 301 302 303 303 301 305 309 309 310 311 313 313 313 314 316 319 321 324 325 324 324 325 323 323 326 327 327 327 328 333 337 339 338 336 338 341 341 341 339 338 339 342 348 349
304 304 304 303 302 302 306 309 309 309 310 311 312 311 312 316 316 319 323 326 325 325 326 324 324 325 326 328 328 328 331 335 337 337 337 337 337 339 339 337 337 337 339 342 347
302 304 304 303 301 306 308 308 308 308 310 310 310 311 313 316 316 318 322 325 326 325 326 326 326 325 326 327 328 329 329 334 336 340 339 337 337 339 340 339 338 338 337 339 342
305 305 304 302 304 306 308 308 309 308 309 309 309 310 312 313 315 316 321 325 325 326 326 326 326 326 327 327 328 329 330 332 335 336 339 339 338 338 339 339 338 337 336 337 339
305 305 303 303 307 307 308 308 307 308 308 310 310 309 312 312 313 315 317 320 317 323 326 326 326 327 326 327 328 328 329 331 335 340 336 338 337 337 338 338 337 335 338 339 343
304 304 303 304 306 306 305 305 304 306 308 309 310 310 311 310 311 313 316 316 315 319 326 327 326 327 328 326 327 328 328 331 333 335 338 338 337 337 336 336 336 336 335 341 343
304 306 303 304 304 305 305 305 305 306 307 309 311 312 312 311 312 313 315 315 314 316 320 323 327 327 327 328 327 328 328 329 332 336 336 336 337 336 336 335 335 337 337 336 346
305 305 304 305 305 305 305 305 304 307 307 308 312 311 312 312 312 312 313 314 316 317 321 324 329 327 327 327 327 328 327 328 330 332 335 336 336 336 337 336 336 336 335 336 340
305 304 304 303 303 305 305 306 305 306 306 309 312 312 312 313 313 315 314 316 316 318 322 325 329 328 327 327 327 327 327 327 327 329 332 334 335 335 334 335 335 333 334 336 336
304 303 303 303 303 305 306 305 305 305 306 306 309 311 312 312 310 310 311 312 314 316 319 324 327 330 329 327 327 328 328 327 327 327 329 332 333 334 334 334 333 332 333 333 333
Wind_Speed
17 17 17 18 18 18 19 18 19 19 18 19 19 20 21 22 21 23 19 11 12 11 12 12 11 9 10 7 8 5 6 1 3 0 9 14 9 6 5 12 8 11 8 27 29
19 19 19 20 19 19 19 20 19 20 20 19 18 18 19 20 20 24 23 17 18 15 16 18 15 12 10 8 6 7 5 4 4 4 2 14 10 10 8 13 10 13 14 27 30
20 20 21 21 21 21 21 21 20 20 20 20 19 17 16 15 15 10 9 12 17 16 16 14 11 13 14 9 9 4 6 5 3 1 4 12 10 7 9 9 14 17 24 31 31
21 22 22 23 23 23 23 23 22 21 20 20 19 16 14 8 6 3 7 8 12 18 16 16 15 16 11 11 8 9 6 6 4 4 8 10 12 8 8 6 13 18 24 31 31
23 23 24 25 25 25 25 24 23 21 19 19 18 15 11 7 14 8 13 6 10 13 17 18 18 17 11 7 8 12 6 5 4 6 8 10 11 6 9 4 16 19 27 30 27
25 26 26 26 27 26 26 25 23 21 18 17 16 13 7 12 12 14 18 15 11 12 15 20 15 17 8 8 9 1 6 5 8 11 12 11 10 9 9 11 17 22 29 29 28
26 27 28 28 27 27 27 26 24 21 16 14 13 12 11 19 11 10 18 24 19 18 16 19 13 15 5 7 11 7 7 6 12 14 11 8 9 9 12 13 18 22 27 27 26
28 28 29 29 28 27 27 26 24 21 16 12 9 8 10 10 18 13 8 12 17 17 15 17 16 14 10 4 9 11 10 11 12 14 8 15 9 10 14 15 17 21 25 26 26
28 30 30 29 27 26 25 25 20 19 15 10 4 6 6 10 12 17 15 10 15 17 9 15 18 16 12 12 12 10 12 11 12 15 9 12 9 13 14 15 16 20 24 25 25
30 31 31 30 27 22 23 24 16 15 12 5 3 6 8 1 3 8 24 18 15 19 11 15 16 12 14 14 16 16 15 14 12 15 11 13 7 7 15 16 16 18 23 25 26
30 31 31 31 26 22 23 14 11 2 7 12 17 20 13 5 6 8 14 26 22 18 15 21 16 19 22 19 19 15 16 15 14 13 15 12 11 13 14 17 17 18 23 26 27
29 30 31 30 24 21 13 8 6 8 17 23 30 29 30 19 8 12 16 23 24 21 23 15 20 21 18 19 21 12 16 16 13 11 14 11 11 9 15 20 20 22 23 26 26
30 30 29 28 19 18 9 12 15 11 9 19 14 15 18 19 17 18 24 30 25 25 26 22 20 20 19 18 20 19 18 17 13 11 14 9 11 10 13 18 19 22 23 24 28
29 29 28 24 9 16 5 16 14 8 6 0 1 1 4 10 13 25 27 24 19 27 26 26 22 21 19 22 21 22 18 15 12 11 12 15 10 15 14 15 19 24 26 26 27
29 28 25 21 13 7 14 17 11 1 7 7 6 2 4 13 8 25 27 27 19 22 25 24 22 20 23 22 22 20 17 15 14 17 16 13 10 3 11 12 18 23 27 28 29
29 27 25 16 11 12 15 12 1 7 7 4 2 3 10 7 15 2 35 29 21 21 27 26 19 20 23 22 23 18 12 15 10 13 14 16 13 13 13 13 13 20 26 29 31
29 26 21 12 10 14 12 3 7 8 3 1 3 6 13 10 10 15 23 28 21 20 20 25 21 19 18 21 23 21 19 11 12 11 10 19 12 14 3 6 3 7 21 27 31
29 23 10 9 15 13 8 8 10 7 13 6 12 16 17 14 12 18 16 24 30 24 20 24 26 25 19 22 19 27 23 16 18 15 14 7 10 14 14 14 7 6 11 19 27
28 17 3 11 14 10 9 9 10 6 7 11 15 19 16 6 5 8 23 24 31 28 18 22 26 26 22 18 24 25 24 25 21 19 14 13 14 15 9 9 10 9 9 14 22
26 12 3 15 16 7 7 11 8 2 10 12 14 11 11 4 8 4 14 20 28 32 26 17 21 23 22 27 24 22 25 24 15 23 18 16 16 11 17 15 12 10 10 8 14
15 9 4 18 8 8 7 9 7 11 14 10 14 18 13 13 7 11 8 2 12 29 26 18 18 20 23 22 24 18 23 22 19 17 15 16 14 13 10 11 8 6 2 3 12
11 5 11 15 8 1 6 9 10 16 17 19 18 18 17 13 14 14 10 11 16 15 31 27 12 17 27 22 24 23 23 28 16 23 20 13 13 15 12 10 7 3 4 9 9
14 7 9 11 4 7 10 14 18 18 18 16 16 15 19 18 13 15 14 5 9 10 5 24 16 16 18 24 25 28 26 27 27 19 21 17 14 12 8 7 9 2 5 9 6
7 4 5 4 6 9 11 14 13 13 15 21 19 13 16 14 17 10 10 5 12 15 18 9 20 23 17 22 24 25 28 27 28 20 21 24 24 9 11 8 9 9 2 9 7
4 4 4 6 8 11 10 13 15 13 7 12 12 7 5 11 17 20 18 14 15 1 9 6 20 22 21 23 24 26 25 27 26 28 27 25 24 22 16 9 6 8 3 3 3
6 5 4 16 10 10 6 4 5 12 4 8 5 5 6 8 8 8 2 12 8 7 9 6 14 21 21 14 17 28 28 29 27 25 27 25 23 20 27 18 12 12 7 4 4
3 5 4 8 7 8 6 7 13 9 6 7 9 14 5 8 15 20 18 19 17 12 8 7 13 21 19 22 14 21 24 28 24 27 25 23 17 11 14 12 17 17 14 11 6
Wind_Direction
358 354 351 347 343 340 335 329 324 319 310 302 294 292 291 289 290 291 280 265 270 247 226 181 184 188 192 236 237 265 256 29 87 244 122 150 146 137 129 147 162 170 157 158 160
357 354 350 346 341 338 333 328 324 320 316 310 304 297 293 293 294 284 278 268 250 227 194 180 188 189 210 230 221 247 288 32 2 10 152 158 155 143 158 155 155 149 144 156 160
1 358 354 349 343 337 331 325 322 319 315 311 307 304 301 301 307 271 248 238 221 205 192 189 207 205 230 230 212 207 285 31 2 289 157 153 150 148 147 178 170 164 158 162 165
2 360 356 351 347 341 334 328 322 317 315 311 306 304 298 297 269 210 128 164 186 171 188 198 201 204 226 217 202 251 243 293 7 128 158 158 139 165 175 96 172 167 167 168 170
2 358 355 350 346 342 335 330 326 319 309 307 303 297 291 251 244 252 213 167 134 180 191 194 200 209 235 223 214 240 282 316 229 162 160 148 157 124 162 121 155 162 168 173 177
1 358 354 350 346 340 333 330 328 321 312 305 299 282 258 252 251 228 223 218 193 194 202 200 208 212 276 246 240 82 297 325 165 150 152 172 151 180 142 135 152 162 170 177 179
354 352 350 346 345 342 335 332 329 324 319 307 296 269 240 243 248 230 217 230 229 222 216 209 210 206 231 237 232 243 241 129 151 153 155 167 175 207 146 149 156 168 174 181 182
353 351 351 347 346 343 341 335 330 323 319 313 297 245 248 257 226 206 201 214 211 205 210 206 201 222 235 279 222 226 236 179 159 169 151 210 126 159 164 165 166 174 179 185 187
352 348 351 349 347 344 344 341 331 320 315 310 319 201 259 260 247 228 200 192 178 177 189 189 200 218 207 229 205 201 210 210 160 195 153 213 77 131 171 178 174 181 186 189 190
349 345 348 350 349 345 348 343 339 325 349 326 260 240 240 175 230 205 199 173 158 163 171 176 191 205 220 209 209 197 233 184 179 190 194 195 196 149 183 187 184 187 191 195 195
346 342 342 348 352 348 350 347 340 257 314 278 280 269 278 324 259 214 190 195 202 201 199 194 203 208 205 212 234 222 204 203 197 158 200 221 215 171 190 198 193 194 197 200 201
340 337 338 345 349 355 14 45 31 317 296 281 264 257 254 260 274 212 177 178 189 200 202 186 219 212 218 211 229 241 221 213 185 165 215 216 229 212 191 211 205 198 198 203 203
339 334 333 341 349 359 22 6 338 324 268 298 263 253 244 218 222 209 186 198 193 199 200 205 214 215 209 215 219 223 226 219 213 183 219 258 243 230 198 214 218 210 205 204 205
343 338 334 338 3 350 342 334 329 315 278 207 154 94 199 210 231 213 200 194 204 205 203 219 219 206 202 219 208 216 217 236 213 196 219 198 247 194 198 205 216 213 209 206 204
346 343 339 338 337 357 321 334 325 261 304 41 90 83 330 217 352 199 199 207 212 203 201 212 216 195 210 210 209 223 185 215 219 212 241 186 244 170 171 201 214 215 213 212 207
347 343 339 342 352 335 332 337 288 237 252 317 59 341 336 269 244 278 195 205 222 215 208 223 201 207 217 211 212 214 193 213 213 230 222 232 217 225 178 216 212 204 213 212 210
347 341 335 328 324 342 338 301 247 244 103 234 307 307 318 303 265 226 194 201 199 195 204 214 198 221 219 209 209 203 196 188 207 212 230 213 207 246 108 145 183 190 204 207 207
347 340 325 335 333 345 329 244 248 267 246 302 311 302 287 298 280 214 208 208 208 203 191 198 205 206 194 211 190 200 204 210 197 207 213 161 225 232 243 243 249 237 210 203 205
348 343 6 327 343 343 288 244 253 309 346 308 304 279 277 260 278 300 223 218 205 207 215 201 216 187 199 200 205 202 217 217 223 227 225 189 221 257 190 204 219 219 198 199 206
347 340 331 343 334 319 258 258 293 321 320 284 274 279 267 278 294 300 234 220 217 215 227 196 212 185 197 198 212 221 206 215 229 220 219 230 218 218 204 214 225 207 200 198 204
349 323 323 337 326 255 267 304 334 316 306 274 267 266 261 266 291 300 277 144 244 211 220 228 223 179 186 203 191 198 207 219 213 228 211 229 215 225 182 179 193 229 302 283 220
344 313 338 346 276 306 303 348 303 287 285 270 266 263 270 269 277 269 262 324 341 286 207 224 208 223 205 198 216 201 208 204 218 204 236 241 230 175 189 200 221 150 35 336 245
327 304 333 350 346 334 320 304 292 280 271 256 255 247 250 247 259 243 256 289 330 319 263 209 230 212 183 199 205 210 210 208 220 221 215 228 226 142 141 172 177 176 67 29 141
319 312 2 350 345 322 328 313 310 300 278 261 262 287 253 235 240 260 248 324 316 311 331 291 228 222 202 203 193 205 207 214 211 219 209 218 228 186 200 225 243 187 64 51 125
314 24 354 320 334 325 309 295 322 310 318 293 239 235 287 244 239 241 253 281 283 83 291 246 222 219 227 196 201 199 213 211 216 221 222 220 217 237 194 210 186 165 156 33 106
305 326 310 300 307 299 291 300 290 308 299 303 321 298 276 253 262 309 277 264 274 332 310 254 223 223 221 210 221 202 205 212 211 221 235 235 242 217 240 235 233 243 238 271 297
286 269 296 293 292 286 318 313 305 306 286 246 304 313 298 28 327 292 284 277 277 296 311 296 222 210 214 211 202 210 201 212 211 219 222 226 221 193 215 230 240 246 262 276 268